Weather in Bryzgalovo

Russia / Udmurt Republic     56°42′51″N   51°29′59″E
temp.,
°C
wind,
m/s
gust,
m/s
humid.,
%
clouds,
%
prec.,
mm/h
press.,
hPa
HPBL,
m
13 june, sun
sun1301:00+12e389881 0.0 1014191
04:00+12ese369841 0.0 1013146
07:00+16sse368950 0.1 1013336
10:00+17s369094 0.3 1014446
13:00+23s5767100 0.9 10131334
16:00+24s576184 1.1 10131538
19:00+22s487190 0.0 1013499
22:00+17sse39909 0.0 1014158
14 june, mon
mon1401:00+16s4109363 0.0 1014187
04:00+15s3119346 0.3 1015247
07:00+18s4786100 0.3 1015320
10:00+22ssw5767100 0.3 1016707
13:00+25sw5757100 0.0 10151400
16:00+23sw5768100 0.0 1016870
19:00+22sw3779100 0.1 1015400
22:00+18ssw3593100 0.3 101681
15 june, tue
tue1501:00+17sw349463 0.6 101661
04:00+16wsw229362 0.6 101514
07:00+20s01815 0.0 1015138
10:00+25s126021 0.0 1015820
13:00+27sse2348100 0.0 10141781
16:00+26s3460100 0.4 10121474
19:00+18nnw4894100 14.1 1013193
22:00+17ssw229197 14.5 101326
16 june, wed
wed1601:00+17ssw3494100 0.3 101364
04:00+16sw2294100 0.3 101342
07:00+19s2492100 0.2 1013118
10:00+23s466997 0.2 1012435
13:00+28s464934 0.0 10111491
16:00+27sse565197 0.0 1010790
19:00+25sse37716 0.0 1009225
22:00+20sse348984 0.8 100865
17 june, thu
thu1701:00+18sw229342 0.1 100730
04:00+17nw349792 0.1 100783
07:00+18n51191100 0.4 1009543
10:00+20n797331 0.6 1011949
13:00+22n79535 0.0 10131570
16:00+21n710490 0.0 10141880
19:00+19n59570 0.0 1016630
22:00+14nnw411725 0.0 1019260